Location: Palomar Mountain Lodge
(33.3110°N, 116.8495°W)
Time: 05:39:23
(UTC-07:00)

Cosmos 1745 Rocket - Pass Details

Date: 19 May 2017
Orbit: 952 x 999 km, 83.0° (Epoch: 22 July)

Event Time Altitude Azimuth Distance (km) Brightness Sun altitude
Rises 20:02:02 0° 358° (N) 3,722 7.5 -4.3°
Reaches altitude 10° 20:04:37 10° 2° (N) 2,767 6.8 -4.8°
Maximum altitude 20:10:54 62° 82° (E) 1,108 4.1 -5.9°
Drops below altitude 10° 20:17:06 10° 163° (SSE) 2,730 5.9 -7.0°
Sets 20:19:38 0° 166° (SSE) 3,668 6.6 -7.5°
